Regional Weather Roundup
Issued by NWS Goodland, KS

Home | Current Version | Previous Version | Text Only | Print | Product List | Glossary Off
Versions: 1 2 3 4 5 6 7 8 9 10 11 12 13 14 15 16 17 18 19 20 21 22 23 24 25 26 27 28 29 30 31 32 33 34 35 36 37 38 39 40 41 42 43 44 45 46 47 48 49 50

000
ASUS43 KGLD 172359
RWRGLD

GOODLAND FORECAST AREA HOURLY WEATHER ROUNDUP
NATIONAL WEATHER SERVICE GOODLAND KS
500 PM MST SUN DEC 17 2017

...OFFICIAL OBSERVATIONS...

CITY           SKY/WX    TMP DP  RH WIND       PRES   REMARKS
GOODLAND KS    CLEAR     32  23  69 SW6       29.94S
HILL CITY KS   PTCLDY    35  28  75 CALM      29.99R
IMPERIAL NEB   CLEAR     33  27  78 S7        29.93S
MCCOOK NEB     PTCLDY    38  30  73 W3        29.96S
AKRON CO       CLEAR     29  22  75 SW7       29.91R
BURLINGTON CO  CLOUDY    30  23  75 SW5       29.94F
LIMON CO       CLOUDY    29  20  69 S5        29.93R
$$

...UNOFFICIAL OBSERVATIONS...

CITY           SKY/WX    TMP DP  RH WIND       PRES   REMARKS
LENORA KS        N/A     36  32  85 CALM        N/A
NORTON KS      CLEAR     36  25  64 W3        29.96
SHARON SPRINGS   N/A     34  25  70 CALM        N/A
TRENTON NEB      N/A     31  32 100 CALM        N/A
KIT CARSON CO    N/A     33  23  67 CALM        N/A
YUMA CO        FAIR      27  21  80 SW8       29.92S
$$



USA.gov is the U.S. government's official web portal to all federal, state and local government web resources and services.